weather.gov     
National Weather Service

Regional Weather Roundup
NWS Homepage
This page is being discontinued on March 12, 2014.
The same data is available at this site. Please update your bookmarks.
Thank you, and we apologize for the inconvenience.
Please send an email to SR-SRH.Webmaster@noaa.gov with any concerns.


Current Version
Previous Version:    01  02  03  04  05  06  07  08  09  10  11  12  13  14  15  16  17  18  19  20  21  22  23  24  25  26  
[Printable]
031
ASUS44 KLZK 240505
RWRLZK

WEATHER ROUNDUP FOR ARKANSAS
NATIONAL WEATHER SERVICE LITTLE ROCK AR
1100 PM CST SUN NOV 23 2014

NOTE: "FAIR" INDICATES FEW OR NO CLOUDS BELOW 12,000 FEET WITH NO
SIGNIFICANT WEATHER AND/OR OBSTRUCTIONS TO VISIBILITY.

ARZ001-003-010-029-240600-
NORTHWEST ARKANSAS

CITY           SKY/WX    TMP DP  RH WIND       PRES   REMARKS
FAYETTEVILLE   RAIN      43  42  97 NW16G23   29.53R FOG
FORT SMITH     CLOUDY    49  43  80 W20G32    29.56R
HARRISON       LGT RAIN  46  44  93 W16G29    29.41R
BENTONVILLE    CLOUDY    43  37  81 NW13G24   29.53R
ROGERS         LGT RAIN  43  40  89 NW22G28   29.51R
SILOAM SPGS    CLOUDY    43  36  75 NW20G26   29.56R
HIGHFILL       RAIN      43  32  65 NW15G33   29.52R
$$

ARZ004-005-016-240600-
NORTH CENTRAL ARKANSAS

CITY           SKY/WX    TMP DP  RH WIND       PRES   REMARKS
BATESVILLE     PTCLDY    61  55  82 SW14G22   29.33S
FLIPPIN        PTCLDY    55  48  76 W28G39    29.34R
MTN HOME       CLOUDY    55  53  93 VRB6      29.33R
$$

ARZ040-041-240600-
WEST CENTRAL ARKANSAS

CITY           SKY/WX    TMP DP  RH WIND       PRES   REMARKS
MENA           CLOUDY    54  46  76 W17G23    29.56R
MOUNT IDA      MOCLDY    58  47  66 W9G21     29.48R
$$

ARZ009-017-025-026-028-240600-
NORTHEAST ARKANSAS

CITY           SKY/WX    TMP DP  RH WIND       PRES   REMARKS
CORNING        CLOUDY    61  61 100 SW25G31   29.32F
JONESBORO      PTCLDY    61  58  90 S17       29.35F
NEWPORT        MOCLDY    60  59  97 S17       29.36S
WALNUT RIDGE   MOCLDY    61  55  82 S20       29.33S
BLYTHEVILLE    PTCLDY    68  59  73 SW21G29   29.37F
$$

ARZ022-023-033-042-044-240600-
CENTRAL ARKANSAS

CITY           SKY/WX    TMP DP  RH WIND       PRES   REMARKS
LITTLE ROCK    CLEAR     61  54  77 SW15G22   29.42R
N LITTLE ROCK  CLEAR     59  58  94 SW12G22   29.42R
JACKSONVILLE   CLEAR     60  57  88 SW14      29.40R
SEARCY         PTCLDY    60  58  92 S9        29.39R
HOT SPRINGS    CLEAR     59  50  72 W13       29.48R
RUSSELLVILLE   PTCLDY    58  48  69 VRB7      29.42R
CLINTON        FAIR      57  55  94 SW8       29.39R
$$

ARZ036-240600-
EAST ARKANSAS

CITY           SKY/WX    TMP DP  RH WIND       PRES   REMARKS
WEST MEMPHIS   PTCLDY    60  59  96 S16       29.41F
$$

ARZ050-053-066-070-073-240600-
SOUTHWEST ARKANSAS

CITY           SKY/WX    TMP DP  RH WIND       PRES   REMARKS
ARKADELPHIA    FAIR      60  49  67 W12       29.52R
CAMDEN         CLEAR     61  46  59 NE10G20   29.53R
TEXARKANA      CLEAR     56  46  69 W15G29    29.60R
EL DORADO      CLEAR     61  48  62 SW10      29.57R
DE QUEEN       MOCLDY    54  45  71 W15G24    29.59R
$$

ARZ056-057-069-240600-
SOUTHEAST ARKANSAS

CITY           SKY/WX    TMP DP  RH WIND       PRES   REMARKS
PINE BLUFF     CLEAR     62  53  72 SW21G29   29.46R
STUTTGART      CLEAR     61  55  82 S18G28    29.43R
MONTICELLO     CLEAR     63  56  78 SW15G24   29.50S

$$






U.S. Dept. of Commerce
NOAA National Weather Service
1325 East West Highway
Silver Spring, MD 20910
E-mail: w-nws.webmaster@noaa.gov
Page last modified: May 16, 2007
NATIONAL WEATHER SERVICE: for Safety, for Work, for Fun - FOR LIFE